Flag for Philippines Weather past 2 weeks in Mabalacat, Philippines

Now
72 °F

Passing clouds.


Feels Like: 71 °F
Forecast: 69 / 88 °F
Wind: 7 mph from Northwest

Location: Clarkfield Pampanga International Airport

Current Time: Jan 26, 2015 at 6:44:12 AM

Latest Report: Jan 26, 2015 at 3:00 AM


Visibility: N/A

Pressure: 30.04 "Hg

Humidity: 83%

Dew point: 66 °F

Location of MabalacatLocation

Historic Weather in Mabalacat — Graph

°F

Mabalacat temperature yesterday

Maximum temperature yesterday: 84 °F (at 2:00 PM)
Minimum temperature yesterday: 68 °F (at 2:00 AM)
Average temperature yesterday: 74 °F

Past Weeks' High & Low Weather Summary

 TemperatureHumidityPressure
High86 °F (Jan 14, 4:00 PM)100% (Jan 14, 11:00 PM)30.09 "Hg (Jan 14, 11:00 PM)
Low66 °F (Jan 19, 7:00 AM)48% (Jan 12, 3:00 PM)29.83 "Hg (Jan 18, 3:00 PM)
Average75 °F75%29.98 "Hg
* Reported Jan 11 3:00 AM — Jan 26 3:00 AM, Mabalacat, Weather by CustomWeather, © 2014

Note: Actual official high and low records may vary slightly from our data, if they occured in-between our weather recording intervals... More about our weather records

Advertising

Mabalacat weather history for previous 24 hours

 ConditionsComfort  
Time TempWeatherWind HumidityBarometerVisibility
3:00 AM
Jan 26
72 °FPassing clouds.7 mph83%30.04 "HgN/A
2:00 AM72 °FPassing clouds.8 mph83%30.04 "HgN/A
1:00 AM70 °FPassing clouds.8 mph88%30.04 "HgN/A
12:00 AM72 °FPassing clouds.6 mph83%30.04 "HgN/A
11:00 PM
Jan 25
72 °FPassing clouds.3 mph83%30.04 "HgN/A
10:00 PM73 °FPassing clouds.5 mph78%30.07 "HgN/A
9:00 PM75 °FPassing clouds.6 mph74%30.07 "HgN/A
8:00 PM75 °FPassing clouds.1 mph74%30.07 "HgN/A
7:00 PM77 °FPassing clouds.1 mph69%30.04 "HgN/A
6:00 PM79 °FPassing clouds.7 mph61%30.04 "HgN/A
5:00 PM81 °FPartly sunny.10 mph62%30.01 "HgN/A
3:00 PM84 °FPartly sunny.6 mph51%29.98 "HgN/A
2:00 PM84 °FPartly sunny.5 mph51%29.98 "HgN/A
1:00 PM82 °FPartly sunny.5 mph55%30.04 "HgN/A
12:00 PM81 °FPartly sunny.6 mph58%30.04 "HgN/A
11:00 AM79 °FPartly sunny.6 mph61%30.07 "HgN/A
10:00 AM77 °FPartly sunny.7 mph61%30.09 "HgN/A
9:00 AM75 °FPartly sunny.9 mph65%30.09 "HgN/A
8:00 AM72 °FPartly sunny.10 mph73%30.09 "HgN/A
7:00 AM68 °FPartly sunny.9 mph83%30.07 "HgN/A
6:00 AM68 °FPassing clouds.9 mph78%30.07 "HgN/A
Weather by CustomWeather, © 2014

See weather overviewHow to use our weather pages